GFSFLT2_700_spd_096.txt.gz
Wind_Speed
27 24 25 24 23 24 27 34 38 47 52 39 35 31 19 19 11 10 13 11 12 13 14 15 15 13 12 11 10 7 6 9
25 25 25 25 21 23 26 33 41 57 50 35 39 27 23 16 17 16 16 15 15 17 17 16 15 15 15 13 11 8 7 7
21 19 16 18 24 26 33 34 41 37 44 38 42 29 25 21 18 18 18 17 17 17 17 16 16 17 16 15 12 8 6 8
21 20 18 16 24 26 32 37 30 31 54 43 47 34 28 24 18 19 20 21 21 20 18 16 16 15 14 12 11 10 8 6
21 19 22 23 25 24 29 25 20 35 42 24 43 38 33 29 26 24 24 24 24 22 19 17 15 14 12 11 9 6 8 6
21 21 25 19 20 19 21 17 22 46 49 36 50 39 34 28 25 25 26 26 23 21 19 17 16 15 11 9 8 3 7 6
25 24 23 13 18 16 10 8 20 34 43 34 41 41 34 30 26 26 27 27 25 23 20 17 16 14 11 9 8 3 6 6
26 26 16 11 16 16 9 9 24 15 33 50 44 39 36 30 27 30 29 28 27 24 20 18 17 13 11 9 7 3 4 5
28 23 13 8 16 17 15 8 11 28 35 47 46 39 36 30 30 32 30 30 28 25 21 19 17 14 12 9 6 4 3 4
23 10 12 12 12 15 14 18 11 31 41 47 44 39 36 32 34 33 32 31 29 26 22 21 18 15 11 8 6 5 5 4
4 6 9 9 11 12 17 19 22 22 45 44 35 38 39 36 35 35 36 33 31 26 24 21 18 15 12 9 6 5 5 6
4 6 8 7 9 13 22 28 29 30 36 39 41 38 41 42 36 35 35 35 33 29 25 23 19 16 14 8 6 6 5 6
4 3 3 5 8 9 15 26 28 36 38 41 43 43 44 45 43 38 28 27 30 28 28 27 25 21 12 4 7 8 8 10
2 11 7 7 7 6 9 15 17 26 34 37 46 48 45 44 41 34 30 29 31 31 31 29 27 20 21 13 11 11 16 13
4 7 11 6 6 5 12 12 17 24 18 38 40 46 41 44 47 39 32 34 35 34 34 33 29 24 23 17 16 19 15 15
5 6 9 7 5 5 7 7 13 21 16 29 36 43 47 52 36 41 45 44 40 39 38 31 28 30 28 22 19 19 18 21
7 6 5 9 9 9 11 12 15 18 19 23 38 40 38 35 32 37 47 42 39 37 35 41 40 28 25 26 23 23 22 24
6 6 4 9 12 9 8 12 12 13 16 20 22 22 21 19 22 33 45 40 38 43 37 34 30 34 19 23 27 27 26 26
2 3 3 3 10 12 10 11 8 11 13 14 16 14 11 8 17 24 34 38 44 33 28 31 32 33 30 30 32 32 32 30
4 2 1 3 5 8 10 9 9 12 12 12 11 10 12 11 14 17 32 34 28 30 35 33 30 34 30 34 34 35 34 35

GFSFLT2_700_spd_102.txt.gz
Wind_Speed
24 22 21 20 22 24 26 28 24 31 36 38 41 40 29 23 22 17 19 22 22 22 20 18 17 17 14 15 14 15 13 12
25 23 23 21 20 22 25 27 27 29 32 36 31 28 25 35 23 19 20 22 22 22 21 18 18 16 15 16 15 13 13 13
26 22 23 21 20 23 24 27 27 29 29 31 33 30 30 30 22 25 22 23 24 23 21 20 19 19 14 16 17 15 14 13
24 21 19 21 19 20 20 24 25 31 29 31 30 29 22 22 31 32 27 25 24 23 22 23 21 15 15 16 15 14 13 11
23 20 19 22 21 22 23 26 28 31 32 32 31 30 27 20 38 34 32 31 29 28 27 25 17 18 15 15 14 12 9 10
22 24 24 24 24 25 27 28 30 34 35 36 39 41 40 35 40 37 34 32 31 30 27 22 23 18 16 15 13 12 12 11
24 27 28 28 27 25 26 21 27 34 37 42 41 41 43 42 46 37 36 34 33 32 27 28 24 18 19 15 14 13 12 13
27 30 32 30 25 23 19 18 22 33 44 47 44 36 39 52 43 39 37 35 34 30 30 29 24 21 20 17 15 13 13 14
28 31 31 24 18 16 17 15 20 16 17 26 37 45 46 43 40 38 36 37 35 34 34 29 28 24 21 18 16 13 13 13
28 29 23 12 10 11 15 13 15 7 21 32 36 49 53 47 41 37 37 37 38 37 32 30 28 23 21 19 18 15 14 13
27 24 12 5 7 9 13 17 9 16 25 34 29 51 47 45 39 34 36 38 39 36 32 29 28 26 24 22 20 18 16 12
25 20 12 7 7 8 11 17 15 13 29 30 31 52 48 43 39 35 37 38 37 36 34 32 30 29 27 25 22 19 15 13
22 19 13 9 8 9 10 12 17 14 20 40 47 43 48 43 37 37 39 37 37 37 35 33 34 32 29 27 22 18 15 11
21 17 14 14 10 10 10 13 20 18 28 42 43 41 50 42 38 37 38 39 39 40 38 36 34 33 29 26 25 23 20 11
20 17 13 14 12 12 11 12 19 24 29 29 51 36 43 44 39 37 39 39 38 40 38 35 33 32 30 27 27 18 9 13
18 17 12 12 14 11 12 12 18 32 32 30 40 39 46 44 42 37 38 38 40 39 36 33 31 32 32 28 25 20 13 14
15 15 11 9 11 8 7 8 14 25 36 37 38 35 38 37 43 44 43 45 40 36 35 34 33 32 26 31 28 19 19 26
12 13 9 6 12 8 6 6 9 18 24 35 37 38 41 41 39 38 40 37 39 38 38 35 35 31 31 36 29 25 29 22
10 10 5 3 11 11 9 11 12 14 19 22 36 36 38 35 41 35 37 33 43 48 36 45 38 37 37 38 34 36 33 23
10 7 3 2 7 12 10 11 12 14 24 17 23 26 37 35 32 32 51 31 34 41 31 41 40 41 40 41 38 35 26 25

GFSFLT2_700_spd_108.txt.gz
Wind_Speed
18 19 18 21 19 15 15 18 21 24 26 32 29 36 33 31 20 26 25 18 18 20 19 18 16 16 15 14 13 12 12 9
17 19 20 23 20 17 16 18 23 26 26 27 27 29 27 28 24 28 25 22 21 21 19 18 18 16 16 15 13 12 12 10
18 19 22 22 21 18 17 18 22 26 27 30 16 30 27 30 29 34 13 21 22 22 21 21 20 19 18 16 14 13 11 11
20 20 21 21 20 20 19 19 23 27 27 30 28 18 28 23 25 21 26 21 30 24 24 23 22 21 19 18 15 14 12 11
21 23 20 22 22 23 22 23 24 26 29 30 30 27 20 27 28 24 25 25 38 31 28 26 24 21 20 18 17 15 14 10
24 25 20 22 25 27 27 27 27 28 28 29 27 29 21 23 27 24 17 35 39 31 28 26 25 24 20 18 18 15 14 14
23 20 19 23 26 30 32 30 27 29 28 28 27 28 27 24 30 21 17 28 35 31 29 25 26 27 23 21 18 17 13 16
19 19 21 24 28 32 32 29 25 26 27 27 29 30 30 30 30 20 20 22 29 31 29 27 28 26 24 22 20 16 16 14
21 23 24 26 29 31 29 21 20 21 24 26 28 31 32 31 29 25 22 29 34 33 32 30 30 29 25 24 20 16 16 14
20 24 26 25 29 28 24 19 15 17 20 22 24 30 34 36 33 32 28 26 35 35 34 32 31 29 26 23 19 16 14 14
22 24 25 25 28 25 21 16 13 15 17 19 27 32 39 40 40 38 35 32 29 40 36 32 31 32 27 22 19 17 16 17
23 23 24 25 27 24 20 16 17 16 17 17 18 30 36 46 41 48 33 36 36 41 38 34 32 31 27 24 22 21 20 19
21 22 24 25 27 23 22 18 19 18 19 17 17 22 29 35 52 39 47 46 45 38 39 37 35 33 29 27 25 23 21 19
23 23 24 25 28 23 24 20 21 21 20 16 16 15 21 35 42 42 41 41 51 45 43 42 38 34 32 28 28 26 23 20
25 27 24 25 27 23 23 20 21 21 23 21 19 21 19 34 35 34 45 49 49 44 43 40 38 36 33 31 29 27 24 23
24 26 24 24 26 22 24 19 20 21 24 23 22 21 20 36 36 43 47 47 45 45 44 41 37 33 32 31 28 24 24 22
25 21 22 23 24 22 23 16 18 20 24 24 19 23 27 42 42 43 42 41 43 43 42 39 36 33 31 30 28 26 25 23
22 21 21 22 19 21 19 14 15 17 19 20 18 18 31 51 47 44 42 39 39 38 39 36 34 31 31 30 27 29 26 24
23 21 19 20 17 18 15 13 13 12 13 15 11 25 32 53 50 46 43 40 37 39 38 37 34 33 34 32 28 29 28 30
23 19 18 17 15 15 14 12 12 10 7 14 14 19 37 37 50 45 45 46 45 40 39 41 37 36 37 34 31 33 34 36

GFSFLT2_700_spd_114.txt.gz
Wind_Speed
11 10 10 11 12 13 11 7 5 10 14 16 16 18 19 16 10 20 16 13 15 20 22 16 16 19 17 15 16 18 16 13
15 14 12 12 13 13 10 9 6 7 13 18 19 19 19 17 21 20 23 21 22 20 26 26 18 18 18 18 19 19 15 15
15 13 13 14 13 14 12 9 9 7 12 17 20 23 24 20 19 19 23 29 26 24 21 25 19 18 19 19 19 18 17 16
13 13 12 14 14 15 15 12 12 11 11 17 23 27 27 22 16 18 27 20 27 20 24 21 21 22 21 21 19 19 21 18
16 16 15 15 15 15 15 15 15 15 15 17 23 26 28 25 24 20 23 28 20 26 24 22 22 21 24 23 23 20 19 19
15 17 16 13 14 15 14 17 19 22 17 19 23 27 29 29 27 25 20 26 25 25 30 24 22 22 24 23 21 21 18 16
19 18 17 13 13 14 15 19 23 26 20 18 23 28 30 31 28 30 23 26 28 21 28 25 22 25 26 25 23 21 18 16
23 22 20 18 17 17 18 19 23 26 22 19 22 27 30 30 30 29 24 28 29 20 30 29 25 27 28 26 24 21 18 17
29 26 25 21 21 22 21 19 22 25 21 17 19 25 30 31 30 29 26 21 25 21 31 29 28 29 29 27 25 21 19 20
29 30 28 22 22 22 22 19 21 22 20 15 17 22 29 31 33 31 30 27 26 28 31 31 27 30 31 29 26 23 21 21
26 30 29 25 25 23 24 20 20 20 20 15 15 20 25 29 35 34 31 29 29 24 24 34 30 31 32 30 28 24 22 22
24 26 28 27 27 25 25 22 20 20 19 17 16 19 24 28 34 41 35 34 33 31 30 38 32 30 34 33 29 25 22 24
28 27 30 29 28 25 23 23 22 21 20 18 19 22 23 23 25 37 40 40 37 33 29 36 33 35 36 34 30 28 25 24
30 26 30 29 27 25 24 24 22 22 22 21 21 23 27 25 28 34 37 44 42 38 36 35 36 37 38 35 34 30 28 24
31 31 30 28 25 26 25 23 23 23 22 21 20 24 27 29 28 37 36 47 47 41 43 38 37 38 39 37 35 32 28 25
33 32 30 30 27 26 25 23 22 23 24 20 21 24 24 30 34 31 27 46 51 40 42 44 41 38 38 36 36 34 29 27
32 30 30 29 28 26 24 24 23 24 24 18 19 25 27 28 32 34 34 46 45 44 49 48 42 40 40 39 36 32 28 25
33 31 30 30 31 29 25 22 22 24 21 17 19 23 25 30 33 33 35 41 49 47 50 45 44 43 36 33 32 31 30 27
35 33 30 29 33 29 24 21 21 22 18 18 19 22 25 30 28 30 36 36 46 56 49 49 38 38 35 34 32 29 31 28
35 33 27 27 28 26 23 21 20 19 17 16 19 21 17 20 23 25 30 34 41 48 49 48 36 37 37 33 32 32 31 30

GFSFLT2_700_spd_117.txt.gz
Wind_Speed
9 10 9 8 9 9 9 8 5 4 7 11 13 13 12 11 9 11 12 8 7 11 10 11 8 14 16 15 14 13 18 13
10 12 12 11 10 9 10 9 9 6 7 10 12 14 16 15 13 13 13 12 14 14 17 15 13 15 17 15 15 15 16 14
11 12 11 11 11 10 11 10 10 10 9 10 14 19 19 18 17 9 11 19 20 19 18 19 17 16 19 16 17 18 17 17
13 12 12 12 11 11 11 12 11 10 12 14 15 19 21 22 21 17 18 19 25 20 20 20 22 20 21 19 19 19 18 18
16 14 14 13 12 12 11 10 12 12 13 16 19 21 22 24 25 22 21 19 23 17 19 21 21 22 22 20 21 21 19 23
20 17 16 14 12 12 12 10 13 15 17 19 19 20 24 26 28 26 25 22 21 22 17 21 22 24 21 22 23 22 22 25
22 20 20 16 14 12 12 12 14 17 19 20 19 21 22 25 28 27 24 24 18 22 23 24 24 23 21 24 24 24 26 26
29 25 24 23 19 16 16 18 16 17 19 20 19 20 25 27 28 28 28 24 23 21 29 31 27 24 24 26 26 28 24 23
34 32 29 28 23 20 20 23 20 18 19 20 18 17 23 27 29 30 29 26 26 23 24 27 29 24 25 26 26 27 24 21
35 36 35 32 28 24 23 24 22 20 18 19 18 16 20 27 31 31 31 28 27 23 30 23 28 28 27 26 26 27 25 23
32 33 34 31 31 27 25 24 24 22 20 19 18 18 17 23 29 32 33 28 27 21 27 29 34 33 32 27 29 28 25 23
35 34 30 29 31 29 28 28 24 23 22 21 21 19 18 21 27 30 33 31 30 32 30 29 32 31 32 30 28 30 25 24
34 33 29 29 31 30 28 27 24 24 24 22 23 22 21 22 25 30 34 35 36 35 31 31 30 31 33 30 31 28 27 25
35 32 31 30 30 29 31 29 26 26 26 24 23 25 24 24 27 29 33 34 38 39 39 35 32 38 36 35 35 32 30 26
35 33 32 32 29 32 33 31 29 27 24 25 26 27 25 26 29 29 32 30 37 38 37 40 36 37 35 37 37 33 31 28
38 34 33 32 30 31 31 30 27 25 26 26 26 28 26 27 28 31 32 31 44 37 40 38 40 39 35 37 33 29 33 31
35 35 35 33 33 32 31 30 27 27 26 27 26 28 26 26 28 28 34 30 35 33 40 44 41 40 40 38 36 29 27 29
30 34 36 33 34 33 32 30 28 26 25 27 26 27 26 26 25 28 33 34 34 37 46 49 48 45 42 38 39 37 31 27
27 31 36 32 32 32 31 29 28 26 26 26 27 27 26 25 27 32 32 33 34 39 40 54 50 50 46 42 40 35 29 29
25 30 36 34 31 30 30 29 28 27 25 26 27 27 26 27 28 31 31 32 36 42 38 56 52 52 50 43 36 31 32 30

GFSFLT2_700_spd_120.txt.gz
Wind_Speed
6 6 6 7 8 7 10 9 8 7 6 4 5 7 10 8 5 3 3 10 13 11 11 4 2 7 14 15 13 11 11 10
8 8 8 8 9 6 8 9 8 9 8 5 6 9 11 10 7 7 7 10 11 12 10 8 7 8 15 15 13 13 13 10
11 10 10 9 9 7 8 10 10 9 9 8 8 10 14 13 10 13 9 15 15 15 10 10 13 12 16 16 17 15 15 14
15 13 12 11 11 9 9 10 10 9 10 11 10 11 13 15 16 15 12 16 14 15 15 15 17 17 18 20 18 17 17 16
18 16 14 14 13 11 10 10 10 10 12 13 14 12 13 19 18 19 20 16 15 12 19 19 17 22 25 21 17 17 18 18
22 19 17 15 15 13 10 9 8 9 11 15 16 15 12 19 20 21 22 20 17 15 17 19 16 21 19 17 19 20 21 21
24 22 19 19 16 16 12 9 10 11 12 15 18 17 14 16 21 23 22 21 20 16 17 17 19 19 19 20 21 20 22 25
29 25 23 23 21 21 18 12 13 13 14 16 18 18 16 16 21 22 21 22 19 18 16 17 19 20 22 23 23 23 26 24
35 34 29 30 26 25 23 18 16 14 17 17 17 18 17 15 19 23 24 23 20 19 20 17 22 24 25 26 26 27 30 27
34 34 30 36 30 27 26 24 19 15 17 19 17 17 17 17 19 23 25 25 22 22 21 19 28 28 26 27 25 26 27 27
36 38 40 31 31 30 30 27 24 19 17 20 20 17 18 17 17 22 26 27 25 24 21 22 21 30 29 27 25 27 25 25
37 41 45 33 29 29 29 31 28 24 19 21 22 20 18 19 18 20 26 28 27 26 23 19 27 26 26 25 28 28 25 25
39 43 44 35 30 30 29 30 28 27 21 22 23 21 20 21 20 22 24 29 28 28 27 26 25 29 33 35 28 26 29 25
39 43 45 37 32 31 29 32 28 28 26 25 24 22 23 23 23 23 26 27 29 31 32 32 30 31 28 38 32 31 31 29
43 43 38 36 34 35 31 30 31 32 29 26 24 23 24 24 26 25 27 29 29 31 33 39 36 33 36 37 37 39 35 31
42 41 40 38 36 33 31 32 34 32 29 26 26 25 26 27 27 25 28 30 29 31 28 39 40 40 36 40 33 36 32 32
43 39 37 42 35 32 31 32 31 31 29 28 29 27 27 27 27 25 28 30 32 32 28 38 38 42 42 40 36 36 32 27
33 32 30 40 36 32 31 33 31 33 31 30 28 29 29 28 26 25 27 31 32 36 30 38 33 41 40 38 36 38 30 31
33 32 30 36 35 33 32 34 34 33 31 30 30 30 30 28 26 27 27 29 31 31 36 36 41 44 47 42 39 34 34 27
26 29 31 38 30 31 33 34 34 32 30 30 31 29 29 28 28 29 29 33 33 34 32 35 38 39 47 45 38 38 40 35